| time (UTC) | temp F | wind direction | speed MPH | gust MPH | rain 1hr in | rain 24hr in | rain mn in | humidity % | barometer mb |
| 20260505184153 | 72 | 218 | 5.0 | 22.0 | 0.00 | 0.00 | 0.00 | 48 | 997.8 |
| 20260505182652 | 73 | 234 | 5.0 | 16.0 | 0.00 | 0.00 | 0.00 | 46 | 998.0 |
| 20260505181201 | 73 | 232 | 5.0 | 13.0 | 0.00 | 0.00 | 0.00 | 46 | 998.4 |
| 20260505175646 | 72 | 202 | 5.0 | 12.0 | 0.00 | 0.00 | 0.00 | 48 | 998.8 |
| 20260505174146 | 71 | 96 | 3.0 | 11.0 | 0.00 | 0.00 | 0.00 | 53 | 999.0 |
| 20260505172642 | 68 | 224 | 3.0 | 11.0 | 0.00 | 0.00 | 0.00 | 55 | 999.3 |
| 20260505171148 | 67 | 171 | 5.0 | 17.0 | 0.00 | 0.00 | 0.00 | 59 | 999.9 |
| 20260505165640 | 69 | 207 | 6.0 | 18.0 | 0.00 | 0.00 | 0.00 | 51 | 999.8 |
| 20260505164140 | 70 | 196 | 5.0 | 15.0 | 0.00 | 0.00 | 0.00 | 46 | 999.5 |
| 20260505162641 | 71 | 218 | 6.0 | 18.0 | 0.00 | 0.00 | 0.00 | 45 | 999.5 |
| 20260505161142 | 71 | 218 | 8.0 | 19.0 | 0.00 | 0.00 | 0.00 | 42 | 999.5 |
| 20260505152640 | 72 | 198 | 3.0 | 14.0 | 0.00 | 0.00 | 0.00 | 42 | 999.8 |
| 20260505151145 | 70 | 240 | 3.0 | 1.0 | 0.00 | 0.00 | 0.00 | 45 | 1000.0 |
| 20260505122742 | 54 | 192 | 3.0 | 9.0 | 0.00 | 0.00 | 0.00 | 73 | 1001.9 |
| 20260505115738 | 51 | 217 | 3.0 | 7.0 | 0.00 | 0.00 | 0.00 | 79 | 1002.0 |
| 20260505114238 | 49 | 188 | 3.0 | 7.0 | 0.00 | 0.00 | 0.00 | 81 | 1002.5 |
| 20260505111238 | 47 | 0 | 1.0 | 4.0 | 0.00 | 0.00 | 0.00 | 87 | 1003.2 |
| 20260505101937 | 38 | 227 | 0.0 | 0.0 | 0.00 | 0.00 | 0.00 | 93 | 1003.2 |
| 20260505095734 | 38 | 227 | 0.0 | 0.0 | 0.00 | 0.00 | 0.00 | 92 | 1003.2 |
| 20260505094234 | 37 | 227 | 0.0 | 0.0 | 0.00 | 0.00 | 0.00 | 92 | 1003.3 |
| 20260505093433 | 37 | 227 | 0.0 | 0.0 | 0.00 | 0.00 | 0.00 | 91 | 1003.3 |
| 20260505091922 | 37 | 227 | 0.0 | 0.0 | 0.00 | 0.00 | 0.00 | 90 | 1003.2 |
| 20260505085735 | 38 | 227 | 0.0 | 0.0 | 0.00 | 0.00 | 0.00 | 90 | 1003.3 |
| 20260505084234 | 38 | 227 | 0.0 | 3.0 | 0.00 | 0.00 | 0.00 | 90 | 1003.5 |
| 20260505082737 | 38 | 227 | 0.0 | 1.0 | 0.00 | 0.00 | 0.00 | 90 | 1003.4 |
| 20260505081234 | 39 | 227 | 0.0 | 1.0 | 0.00 | 0.00 | 0.00 | 90 | 1003.7 |
| 20260505075734 | 39 | 227 | 0.0 | 1.0 | 0.00 | 0.00 | 0.00 | 88 | 1003.8 |
| 20260505074234 | 40 | 227 | 0.0 | 2.0 | 0.00 | 0.00 | 0.00 | 88 | 1003.7 |
| 20260505072733 | 40 | 227 | 0.0 | 2.0 | 0.00 | 0.00 | 0.00 | 88 | 1003.9 |
| 20260505071231 | 40 | 227 | 0.0 | 2.0 | 0.00 | 0.00 | 0.00 | 88 | 1003.9 |
| 20260505065730 | 40 | 228 | 0.0 | 1.0 | 0.00 | 0.00 | 0.00 | 89 | 1004.0 |
| 20260505064228 | 40 | 229 | 0.0 | 0.0 | 0.00 | 0.00 | 0.00 | 88 | 1004.2 |
| 20260505062726 | 40 | 228 | 0.0 | 2.0 | 0.00 | 0.00 | 0.00 | 87 | 1003.9 |
| 20260505061224 | 40 | 228 | 0.0 | 3.0 | 0.00 | 0.00 | 0.00 | 88 | 1004.2 |
| 20260505060413 | 40 | 228 | 1.0 | 3.0 | 0.00 | 0.00 | 0.00 | 88 | 1004.5 |
| 20260505054219 | 40 | 232 | 0.0 | 2.0 | 0.00 | 0.00 | 0.00 | 87 | 1004.5 |
| 20260505052716 | 40 | 233 | 0.0 | 1.0 | 0.00 | 0.00 | 0.00 | 87 | 1004.0 |
| 20260505051216 | 41 | 233 | 0.0 | 0.0 | 0.00 | 0.00 | 0.00 | 86 | 1004.1 |
| 20260505041213 | 43 | 233 | 0.0 | 3.0 | 0.00 | 0.00 | 0.00 | 82 | 1004.1 |
| 20260505035712 | 43 | 234 | 0.0 | 0.0 | 0.00 | 0.00 | 0.00 | 81 | 1004.1 |
| 20260505034215 | 44 | 234 | 0.0 | 0.0 | 0.00 | 0.00 | 0.00 | 79 | 1004.1 |
| 20260505033412 | 44 | 232 | 0.0 | 0.0 | 0.00 | 0.00 | 0.00 | 80 | 1004.0 |
| 20260505031212 | 43 | 232 | 0.0 | 0.0 | 0.00 | 0.00 | 0.00 | 82 | 1004.0 |
| 20260505025713 | 43 | 233 | 0.0 | 0.0 | 0.00 | 0.00 | 0.00 | 82 | 1004.1 |
| 20260505024208 | 42 | 233 | 0.0 | 0.0 | 0.00 | 0.00 | 0.00 | 82 | 1004.2 |
| 20260505022710 | 42 | 233 | 0.0 | 0.0 | 0.00 | 0.00 | 0.00 | 80 | 1004.0 |
| 20260505021216 | 43 | 232 | 0.0 | 0.0 | 0.00 | 0.00 | 0.00 | 79 | 1004.0 |
| 20260505020357 | 44 | 232 | 0.0 | 0.0 | 0.00 | 0.00 | 0.00 | 78 | 1004.0 |
| 20260505014202 | 45 | 232 | 0.0 | 0.0 | 0.00 | 0.00 | 0.00 | 75 | 1003.9 |
| 20260505013350 | 46 | 232 | 0.0 | 1.0 | 0.00 | 0.00 | 0.00 | 72 | 1003.8 |
| 20260505011200 | 47 | 232 | 0.0 | 5.0 | 0.00 | 0.00 | 0.00 | 71 | 1003.7 |
| 20260505005705 | 48 | 235 | 0.0 | 6.0 | 0.00 | 0.00 | 0.00 | 70 | 1003.5 |
| 20260505004201 | 49 | 263 | 1.0 | 7.0 | 0.00 | 0.00 | 0.00 | 68 | 1003.3 |
| 20260505002700 | 49 | 281 | 2.0 | 8.0 | 0.00 | 0.00 | 0.00 | 67 | 1002.9 |
| 20260504235702 | 50 | 223 | 2.0 | 9.0 | 0.00 | 0.00 | 0.00 | 63 | 1002.2 |
| 20260504234159 | 51 | 236 | 4.0 | 11.0 | 0.00 | 0.00 | 0.00 | 62 | 1002.0 |
| 20260504232656 | 52 | 213 | 2.0 | 8.0 | 0.00 | 0.00 | 0.00 | 60 | 1001.6 |
| 20260504231157 | 52 | 283 | 2.0 | 10.0 | 0.00 | 0.00 | 0.00 | 58 | 1001.5 |
| 20260504225656 | 54 | 0 | 3.0 | 10.0 | 0.00 | 0.00 | 0.00 | 55 | 1001.2 |
| 20260504224156 | 55 | 239 | 2.0 | 15.0 | 0.00 | 0.00 | 0.00 | 52 | 1001.1 |
| 20260504222657 | 55 | 296 | 4.0 | 12.0 | 0.00 | 0.00 | 0.00 | 50 | 1000.9 |
| 20260504221157 | 55 | 258 | 3.0 | 12.0 | 0.00 | 0.00 | 0.00 | 49 | 1000.8 |
| 20260504215656 | 56 | 281 | 3.0 | 13.0 | 0.00 | 0.00 | 0.00 | 48 | 1000.6 |
| 20260504214156 | 56 | 221 | 3.0 | 10.0 | 0.00 | 0.00 | 0.00 | 47 | 1000.5 |
| 20260504212656 | 56 | 268 | 4.0 | 13.0 | 0.00 | 0.00 | 0.00 | 45 | 1000.6 |
| 20260504211156 | 56 | 250 | 2.0 | 10.0 | 0.00 | 0.00 | 0.00 | 44 | 1000.4 |
| 20260504205656 | 56 | 250 | 4.0 | 14.0 | 0.00 | 0.00 | 0.00 | 43 | 1000.3 |
| 20260504204156 | 56 | 278 | 3.0 | 11.0 | 0.00 | 0.00 | 0.00 | 44 | 1000.2 |
| 20260504202650 | 55 | 19 | 4.0 | 12.0 | 0.00 | 0.00 | 0.00 | 43 | 1000.2 |
| 20260504201152 | 56 | 256 | 3.0 | 12.0 | 0.00 | 0.00 | 0.00 | 44 | 1000.3 |
| 20260504195650 | 56 | 236 | 2.0 | 11.0 | 0.00 | 0.00 | 0.00 | 44 | 1000.3 |
| 20260504192651 | 55 | 296 | 5.0 | 18.0 | 0.00 | 0.03 | 0.00 | 44 | 1000.3 |
| 20260504191150 | 55 | 245 | 6.0 | 16.0 | 0.00 | 0.03 | 0.00 | 45 | 1000.2 |
| 20260504190340 | 55 | 293 | 4.0 | 14.0 | 0.00 | 0.03 | 0.00 | 42 | 1000.2 |